Year,Month,Day,Hour,Minute,Value (Times are PST for temperature in C)
2017,04,03,00,00,-2.50
2017,04,03,00,01,-2.50
2017,04,03,00,02,-2.60
2017,04,03,00,03,-2.60
2017,04,03,00,04,-2.60
2017,04,03,00,05,-2.60
2017,04,03,00,06,-2.60
2017,04,03,00,07,-2.60
2017,04,03,00,08,-2.60
2017,04,03,00,09,-2.60
2017,04,03,00,10,-2.60
2017,04,03,00,11,-2.70
2017,04,03,00,12,-2.70
2017,04,03,00,13,-2.70
2017,04,03,00,14,-2.70
2017,04,03,00,15,-2.70
2017,04,03,00,16,-2.70
2017,04,03,00,17,-2.70
2017,04,03,00,18,-2.70
2017,04,03,00,19,-2.70
2017,04,03,00,20,-2.70
2017,04,03,00,21,-2.70
2017,04,03,00,22,-2.70
2017,04,03,00,23,-2.70
2017,04,03,00,24,-2.70
2017,04,03,00,25,-2.70
2017,04,03,00,26,-2.70
2017,04,03,00,27,-2.70
2017,04,03,00,28,-2.70
2017,04,03,00,29,-2.70
2017,04,03,00,30,-2.70
2017,04,03,00,31,-2.70
2017,04,03,00,32,-2.70
2017,04,03,00,33,-2.80
2017,04,03,00,34,-2.80
2017,04,03,00,35,-2.80
2017,04,03,00,36,-2.80
2017,04,03,00,37,-2.80
2017,04,03,00,38,-2.80
2017,04,03,00,39,-2.80
2017,04,03,00,40,-2.80
2017,04,03,00,41,-2.80
2017,04,03,00,42,-2.80
2017,04,03,00,43,-2.80
2017,04,03,00,44,-2.80
2017,04,03,00,45,-2.80
2017,04,03,00,46,-2.80
2017,04,03,00,47,-2.80
2017,04,03,00,48,-2.80
2017,04,03,00,49,-2.80
2017,04,03,00,50,-2.80
2017,04,03,00,51,-2.80
2017,04,03,00,52,-2.90
2017,04,03,00,53,-2.90
2017,04,03,00,54,-2.90
2017,04,03,00,55,-2.90
2017,04,03,00,56,-2.90
2017,04,03,00,57,-2.90
2017,04,03,00,58,-2.90
2017,04,03,00,59,-2.90
2017,04,03,01,00,-2.90
2017,04,03,01,01,-2.90
2017,04,03,01,02,-2.90
2017,04,03,01,03,-2.90
2017,04,03,01,04,-2.90
2017,04,03,01,05,-2.90
2017,04,03,01,06,-2.90
2017,04,03,01,07,-2.90
2017,04,03,01,08,-2.90
2017,04,03,01,09,-2.90
2017,04,03,01,10,-2.90
2017,04,03,01,11,-2.90
2017,04,03,01,12,-3.10
2017,04,03,01,13,-3.10
2017,04,03,01,14,-3.10
2017,04,03,01,15,-3.10
2017,04,03,01,16,-3.10
2017,04,03,01,17,-3.10
2017,04,03,01,18,-3.10
2017,04,03,01,19,-3.10
2017,04,03,01,20,-3.10
2017,04,03,01,21,-3.10
2017,04,03,01,22,-3.10
2017,04,03,01,23,-3.10
2017,04,03,01,24,-3.10
2017,04,03,01,25,-3.10
2017,04,03,01,26,-3.10
2017,04,03,01,27,-3.10
2017,04,03,01,28,-3.10
2017,04,03,01,29,-3.10
2017,04,03,01,30,-3.10
2017,04,03,01,31,-3.10
2017,04,03,01,32,-3.10
2017,04,03,01,33,-3.10
2017,04,03,01,34,-3.10
2017,04,03,01,35,-3.10
2017,04,03,01,36,-3.10
2017,04,03,01,37,-3.10
2017,04,03,01,38,-3.10
2017,04,03,01,39,-3.10
2017,04,03,01,40,-3.10
2017,04,03,01,41,-3.10
2017,04,03,01,42,-3.10
2017,04,03,01,43,-3.10
2017,04,03,01,44,-3.10
2017,04,03,01,45,-3.10
2017,04,03,01,46,-3.10
2017,04,03,01,47,-3.10
2017,04,03,01,48,-3.10
2017,04,03,01,49,-3.10
2017,04,03,01,50,-3.10
2017,04,03,01,51,-3.10
2017,04,03,01,52,-3.10
2017,04,03,01,53,-3.10
2017,04,03,01,54,-3.10
2017,04,03,01,55,-3.10
2017,04,03,01,56,-3.10
2017,04,03,01,57,-3.10
2017,04,03,01,58,-3.10
2017,04,03,01,59,-3.10
2017,04,03,02,00,-3.10
2017,04,03,02,01,-3.10
2017,04,03,02,02,-3.10
2017,04,03,02,03,-3.10
2017,04,03,02,04,-3.10
2017,04,03,02,05,-3.10
2017,04,03,02,06,-3.10
2017,04,03,02,07,-3.10
2017,04,03,02,08,-3.10
2017,04,03,02,09,-3.10
2017,04,03,02,10,-3.10
2017,04,03,02,11,-3.10
2017,04,03,02,12,-3.10
2017,04,03,02,13,-3.10
2017,04,03,02,14,-3.10
2017,04,03,02,15,-3.10
2017,04,03,02,16,-3.10
2017,04,03,02,17,-3.10
2017,04,03,02,18,-3.10
2017,04,03,02,19,-3.10
2017,04,03,02,20,-3.10
2017,04,03,02,21,-3.20
2017,04,03,02,22,-3.20
2017,04,03,02,23,-3.20
2017,04,03,02,24,-3.20
2017,04,03,02,25,-3.20
2017,04,03,02,26,-3.20
2017,04,03,02,27,-3.20
2017,04,03,02,28,-3.20
2017,04,03,02,29,-3.20
2017,04,03,02,30,-3.20
2017,04,03,02,31,-3.20
2017,04,03,02,32,-3.20
2017,04,03,02,33,-3.20
2017,04,03,02,34,-3.20
2017,04,03,02,35,-3.20
2017,04,03,02,36,-3.20
2017,04,03,02,37,-3.20
2017,04,03,02,38,-3.20
2017,04,03,02,39,-3.20
2017,04,03,02,40,-3.20
2017,04,03,02,41,-3.20
2017,04,03,02,42,-3.20
2017,04,03,02,43,-3.20
2017,04,03,02,44,-3.20
2017,04,03,02,45,-3.20
2017,04,03,02,46,-3.20
2017,04,03,02,47,-3.20
2017,04,03,02,48,-3.20
2017,04,03,02,49,-3.20
2017,04,03,02,50,-3.20
2017,04,03,02,51,-3.30
2017,04,03,02,52,-3.30
2017,04,03,02,53,-3.30
2017,04,03,02,54,-3.30
2017,04,03,02,55,-3.30
2017,04,03,02,56,-3.30
2017,04,03,02,57,-3.30
2017,04,03,02,58,-3.30
2017,04,03,02,59,-3.30
2017,04,03,03,00,-3.30
2017,04,03,03,01,-3.30
2017,04,03,03,02,-3.30
2017,04,03,03,03,-3.40
2017,04,03,03,04,-3.40
2017,04,03,03,05,-3.40
2017,04,03,03,06,-3.40
2017,04,03,03,07,-3.40
2017,04,03,03,08,-3.40
2017,04,03,03,09,-3.40
2017,04,03,03,10,-3.40
2017,04,03,03,11,-3.40
2017,04,03,03,12,-3.40
2017,04,03,03,13,-3.40
2017,04,03,03,14,-3.40
2017,04,03,03,15,-3.40
2017,04,03,03,16,-3.40
2017,04,03,03,17,-3.40
2017,04,03,03,18,-3.40
2017,04,03,03,19,-3.40
2017,04,03,03,20,-3.40
2017,04,03,03,21,-3.40
2017,04,03,03,22,-3.60
2017,04,03,03,23,-3.60
2017,04,03,03,24,-3.60
2017,04,03,03,25,-3.60
2017,04,03,03,26,-3.60
2017,04,03,03,27,-3.60
2017,04,03,03,28,-3.60
2017,04,03,03,29,-3.60
2017,04,03,03,30,-3.60
2017,04,03,03,31,-3.60
2017,04,03,03,32,-3.60
2017,04,03,03,33,-3.60
2017,04,03,03,34,-3.60
2017,04,03,03,35,-3.60
2017,04,03,03,36,-3.60
2017,04,03,03,37,-3.60
2017,04,03,03,38,-3.60
2017,04,03,03,39,-3.60
2017,04,03,03,40,-3.60
2017,04,03,03,41,-3.60
2017,04,03,03,42,-3.60
2017,04,03,03,43,-3.70
2017,04,03,03,44,-3.70
2017,04,03,03,45,-3.70
2017,04,03,03,46,-3.70
2017,04,03,03,47,-3.70
2017,04,03,03,48,-3.70
2017,04,03,03,49,-3.70
2017,04,03,03,50,-3.70
2017,04,03,03,51,-3.80
2017,04,03,03,52,-3.80
2017,04,03,03,53,-3.80
2017,04,03,03,54,-3.80
2017,04,03,03,55,-3.80
2017,04,03,03,56,-3.80
2017,04,03,03,57,-3.80
2017,04,03,03,58,-3.80
2017,04,03,03,59,-3.80
2017,04,03,04,00,-3.80
2017,04,03,04,01,-3.80
2017,04,03,04,02,-3.80
2017,04,03,04,03,-3.80
2017,04,03,04,04,-3.80
2017,04,03,04,05,-3.80
2017,04,03,04,06,-3.80
2017,04,03,04,07,-3.80
2017,04,03,04,08,-3.80
2017,04,03,04,09,-3.80
2017,04,03,04,10,-3.80
2017,04,03,04,11,-3.80
2017,04,03,04,12,-4.20
2017,04,03,04,13,-4.20
2017,04,03,04,14,-4.20
2017,04,03,04,15,-4.20
2017,04,03,04,16,-4.20
2017,04,03,04,17,-4.20
2017,04,03,04,18,-4.20
2017,04,03,04,19,-4.20
2017,04,03,04,20,-4.20
2017,04,03,04,21,-4.20
2017,04,03,04,22,-4.20
2017,04,03,04,23,-4.20
2017,04,03,04,24,-4.20
2017,04,03,04,25,-4.20
2017,04,03,04,26,-4.20
2017,04,03,04,27,-4.20
2017,04,03,04,28,-4.20
2017,04,03,04,29,-4.20
2017,04,03,04,30,-4.20
2017,04,03,04,31,-4.20
2017,04,03,04,32,-4.40
2017,04,03,04,33,-4.40
2017,04,03,04,34,-4.40
2017,04,03,04,35,-4.40
2017,04,03,04,36,-4.40
2017,04,03,04,37,-4.40
2017,04,03,04,38,-4.40
2017,04,03,04,39,-4.40
2017,04,03,04,40,-4.40
2017,04,03,04,41,-4.50
2017,04,03,04,42,-4.50
2017,04,03,04,43,-4.50
2017,04,03,04,44,-4.50
2017,04,03,04,45,-4.50
2017,04,03,04,46,-4.50
2017,04,03,04,47,-4.50
2017,04,03,04,48,-4.50
2017,04,03,04,49,-4.50
2017,04,03,04,50,-4.50
2017,04,03,04,51,-4.40
2017,04,03,04,52,-4.40
2017,04,03,04,53,-4.40
2017,04,03,04,54,-4.40
2017,04,03,04,55,-4.40
2017,04,03,04,56,-4.40
2017,04,03,04,57,-4.40
2017,04,03,04,58,-4.40
2017,04,03,04,59,-4.40
2017,04,03,05,00,-4.40
2017,04,03,05,01,-4.40
2017,04,03,05,02,-4.40
2017,04,03,05,03,-4.60
2017,04,03,05,04,-4.60
2017,04,03,05,05,-4.60
2017,04,03,05,06,-4.60
2017,04,03,05,07,-4.60
2017,04,03,05,08,-4.60
2017,04,03,05,09,-4.60
2017,04,03,05,10,-4.60
2017,04,03,05,11,-4.60
2017,04,03,05,12,-4.90
2017,04,03,05,13,-4.90
2017,04,03,05,14,-4.90
2017,04,03,05,15,-4.90
2017,04,03,05,16,-4.90
2017,04,03,05,17,-4.90
2017,04,03,05,18,-4.90
2017,04,03,05,19,-4.90
2017,04,03,05,20,-4.90
2017,04,03,05,21,-4.90
2017,04,03,05,22,-5.00
2017,04,03,05,23,-5.00
2017,04,03,05,24,-5.00
2017,04,03,05,25,-5.00
2017,04,03,05,26,-5.00
2017,04,03,05,27,-5.00
2017,04,03,05,28,-5.00
2017,04,03,05,29,-5.00
2017,04,03,05,30,-5.00
2017,04,03,05,31,-5.00
2017,04,03,05,32,-5.20
2017,04,03,05,33,-5.20
2017,04,03,05,34,-5.20
2017,04,03,05,35,-5.20
2017,04,03,05,36,-5.20
2017,04,03,05,37,-5.20
2017,04,03,05,38,-5.20
2017,04,03,05,39,-5.20
2017,04,03,05,40,-5.20
2017,04,03,05,41,-5.20
2017,04,03,05,42,-5.20
2017,04,03,05,43,-5.20
2017,04,03,05,44,-5.20
2017,04,03,05,45,-5.20
2017,04,03,05,46,-5.20
2017,04,03,05,47,-5.20
2017,04,03,05,48,-5.20
2017,04,03,05,49,-5.20
2017,04,03,05,50,-5.20
2017,04,03,05,51,-5.20
2017,04,03,05,52,-5.40
2017,04,03,05,53,-5.40
2017,04,03,05,54,-5.40
2017,04,03,05,55,-5.40
2017,04,03,05,56,-5.40
2017,04,03,05,57,-5.40
2017,04,03,05,58,-5.40
2017,04,03,05,59,-5.40
2017,04,03,06,00,-5.40
2017,04,03,06,01,-5.40
2017,04,03,06,02,-5.40
2017,04,03,06,03,-5.40
2017,04,03,06,04,-5.40
2017,04,03,06,05,-5.40
2017,04,03,06,06,-5.40
2017,04,03,06,07,-5.40
2017,04,03,06,08,-5.40
2017,04,03,06,09,-5.40
2017,04,03,06,10,-5.40
2017,04,03,06,11,-5.40
2017,04,03,06,12,-5.40
2017,04,03,06,13,-5.40
2017,04,03,06,14,-5.40
2017,04,03,06,15,-5.40
2017,04,03,06,16,-5.40
2017,04,03,06,17,-5.40
2017,04,03,06,18,-5.40
2017,04,03,06,19,-5.40
2017,04,03,06,20,-5.40
2017,04,03,06,21,-5.60
2017,04,03,06,22,-5.60
2017,04,03,06,23,-5.60
2017,04,03,06,24,-5.60
2017,04,03,06,25,-5.60
2017,04,03,06,26,-5.60
2017,04,03,06,27,-5.60
2017,04,03,06,28,-5.60
2017,04,03,06,29,-5.60
2017,04,03,06,30,-5.60
2017,04,03,06,31,-5.60
2017,04,03,06,32,-5.60
2017,04,03,06,33,-5.60
2017,04,03,06,34,-5.60
2017,04,03,06,35,-5.60
2017,04,03,06,36,-5.60
2017,04,03,06,37,-5.60
2017,04,03,06,38,-5.60
2017,04,03,06,39,-5.60
2017,04,03,06,40,-5.60
2017,04,03,06,41,-5.60
2017,04,03,06,42,-5.60
2017,04,03,06,43,-5.60
2017,04,03,06,44,-5.60
2017,04,03,06,45,-5.60
2017,04,03,06,46,-5.60
2017,04,03,06,47,-5.60
2017,04,03,06,48,-5.60
2017,04,03,06,49,-5.60
2017,04,03,06,50,-5.60
2017,04,03,06,51,-5.70
2017,04,03,06,52,-5.70
2017,04,03,06,53,-5.70
2017,04,03,06,54,-5.70
2017,04,03,06,55,-5.70
2017,04,03,06,56,-5.70
2017,04,03,06,57,-5.70
2017,04,03,06,58,-5.70
2017,04,03,06,59,-5.70
2017,04,03,07,00,-5.70
2017,04,03,07,01,-5.70
2017,04,03,07,02,-5.70
2017,04,03,07,03,-5.80
2017,04,03,07,04,-5.80
2017,04,03,07,05,-5.80
2017,04,03,07,06,-5.80
2017,04,03,07,07,-5.80
2017,04,03,07,08,-5.80
2017,04,03,07,09,-5.80
2017,04,03,07,10,-5.80
2017,04,03,07,11,-5.80
2017,04,03,07,12,-5.80
2017,04,03,07,13,-5.90
2017,04,03,07,14,-5.90
2017,04,03,07,15,-5.90
2017,04,03,07,16,-5.90
2017,04,03,07,17,-5.90
2017,04,03,07,18,-5.90
2017,04,03,07,19,-5.90
2017,04,03,07,20,-5.90
2017,04,03,07,21,-5.90
2017,04,03,07,22,-5.80
2017,04,03,07,23,-5.80
2017,04,03,07,24,-5.80
2017,04,03,07,25,-5.80
2017,04,03,07,26,-5.80
2017,04,03,07,27,-5.80
2017,04,03,07,28,-5.80
2017,04,03,07,29,-5.80
2017,04,03,07,30,-5.80
2017,04,03,07,31,-6.10
2017,04,03,07,32,-6.10
2017,04,03,07,33,-6.10
2017,04,03,07,34,-6.10
2017,04,03,07,35,-6.10
2017,04,03,07,36,-6.10
2017,04,03,07,37,-6.10
2017,04,03,07,38,-6.10
2017,04,03,07,39,-6.10
2017,04,03,07,40,-6.10
2017,04,03,07,41,-6.10
2017,04,03,07,42,-5.90
2017,04,03,07,43,-5.90
2017,04,03,07,44,-5.90
2017,04,03,07,45,-5.90
2017,04,03,07,46,-5.90
2017,04,03,07,47,-5.90
2017,04,03,07,48,-5.90
2017,04,03,07,49,-5.90
2017,04,03,07,50,-5.90
2017,04,03,07,51,-5.90
2017,04,03,07,52,-5.60
2017,04,03,07,53,-5.60
2017,04,03,07,54,-5.60
2017,04,03,07,55,-5.60
2017,04,03,07,56,-5.60
2017,04,03,07,57,-5.60
2017,04,03,07,58,-5.60
2017,04,03,07,59,-5.60
2017,04,03,08,00,-5.60
2017,04,03,08,01,-5.60
2017,04,03,08,02,-5.60
2017,04,03,08,03,-5.60
2017,04,03,08,04,-5.60
2017,04,03,08,05,-5.60
2017,04,03,08,06,-5.60
2017,04,03,08,07,-5.60
2017,04,03,08,08,-5.60
2017,04,03,08,09,-5.60
2017,04,03,08,10,-5.60
2017,04,03,08,11,-5.50
2017,04,03,08,12,-5.50
2017,04,03,08,13,-5.50
2017,04,03,08,14,-5.50
2017,04,03,08,15,-5.50
2017,04,03,08,16,-5.50
2017,04,03,08,17,-5.50
2017,04,03,08,18,-5.50
2017,04,03,08,19,-5.50
2017,04,03,08,20,-5.50
2017,04,03,08,21,-5.50
2017,04,03,08,22,-5.50
2017,04,03,08,23,-4.00
2017,04,03,08,24,-4.00
2017,04,03,08,25,-4.00
2017,04,03,08,26,-4.00
2017,04,03,08,27,-4.00
2017,04,03,08,28,-4.00
2017,04,03,08,29,-4.00
2017,04,03,08,30,-4.00
2017,04,03,08,31,-4.00
2017,04,03,08,32,-4.00
2017,04,03,08,33,-2.20
2017,04,03,08,34,-2.20
2017,04,03,08,35,-2.20
2017,04,03,08,36,-2.20
2017,04,03,08,37,-2.20
2017,04,03,08,38,-2.20
2017,04,03,08,39,-2.20
2017,04,03,08,40,-2.20
2017,04,03,08,41,-1.40
2017,04,03,08,42,-1.40
2017,04,03,08,43,-1.40
2017,04,03,08,44,-1.40
2017,04,03,08,45,-1.40
2017,04,03,08,46,-1.40
2017,04,03,08,47,-1.40
2017,04,03,08,48,-1.40
2017,04,03,08,49,-1.40
2017,04,03,08,50,-1.40
2017,04,03,08,51,-0.90
2017,04,03,08,52,-0.90
2017,04,03,08,53,-0.90
2017,04,03,08,54,-0.90
2017,04,03,08,55,-0.90
2017,04,03,08,56,-0.90
2017,04,03,08,57,-0.90
2017,04,03,08,58,-0.90
2017,04,03,08,59,-0.90
2017,04,03,09,00,-0.90
2017,04,03,09,01,-0.70
2017,04,03,09,02,-0.70
2017,04,03,09,03,-0.70
2017,04,03,09,04,-0.70
2017,04,03,09,05,-0.70
2017,04,03,09,06,-0.70
2017,04,03,09,07,-0.70
2017,04,03,09,08,-0.70
2017,04,03,09,09,-0.70
2017,04,03,09,10,-0.70
2017,04,03,09,11,-0.30
2017,04,03,09,12,-0.30
2017,04,03,09,13,-0.30
2017,04,03,09,14,-0.30
2017,04,03,09,15,-0.30
2017,04,03,09,16,-0.30
2017,04,03,09,17,-0.30
2017,04,03,09,18,-0.30
2017,04,03,09,19,-0.30
2017,04,03,09,20,-0.30
2017,04,03,09,21,-0.30
2017,04,03,09,22,-0.30
2017,04,03,09,23,-0.30
2017,04,03,09,24,-0.30
2017,04,03,09,25,-0.30
2017,04,03,09,26,-0.30
2017,04,03,09,27,-0.30
2017,04,03,09,28,-0.30
2017,04,03,09,29,-0.30
2017,04,03,09,30,-0.30
2017,04,03,09,31,-0.30
2017,04,03,09,32,-0.10
2017,04,03,09,33,-0.10
2017,04,03,09,34,-0.10
2017,04,03,09,35,-0.10
2017,04,03,09,36,-0.10
2017,04,03,09,37,-0.10
2017,04,03,09,38,-0.10
2017,04,03,09,39,-0.10
2017,04,03,09,40,-0.10
2017,04,03,09,41,0.00
2017,04,03,09,42,0.00
2017,04,03,09,43,0.00
2017,04,03,09,44,0.00
2017,04,03,09,45,0.00
2017,04,03,09,46,0.00
2017,04,03,09,47,0.00
2017,04,03,09,48,0.00
2017,04,03,09,49,0.00
2017,04,03,09,50,0.00
2017,04,03,09,51,0.10
2017,04,03,09,52,0.10
2017,04,03,09,53,0.10
2017,04,03,09,54,0.10
2017,04,03,09,55,0.10
2017,04,03,09,56,0.10
2017,04,03,09,57,0.10
2017,04,03,09,58,0.10
2017,04,03,09,59,0.10
2017,04,03,10,00,0.10
2017,04,03,10,01,0.10
2017,04,03,10,02,0.10
2017,04,03,10,03,0.10
2017,04,03,10,04,0.10
2017,04,03,10,05,0.10
2017,04,03,10,06,0.10
2017,04,03,10,07,0.10
2017,04,03,10,08,0.10
2017,04,03,10,09,0.10
2017,04,03,10,10,0.10
2017,04,03,10,11,0.40
2017,04,03,10,12,0.40
2017,04,03,10,13,0.40
2017,04,03,10,14,0.40
2017,04,03,10,15,0.40
2017,04,03,10,16,0.40
2017,04,03,10,17,0.40
2017,04,03,10,18,0.40
2017,04,03,10,19,0.40
2017,04,03,10,20,0.40
2017,04,03,10,21,0.30
2017,04,03,10,22,0.30
2017,04,03,10,23,0.30
2017,04,03,10,24,0.30
2017,04,03,10,25,0.30
2017,04,03,10,26,0.30
2017,04,03,10,27,0.30
2017,04,03,10,28,0.30
2017,04,03,10,29,0.30
2017,04,03,10,30,0.30
2017,04,03,10,31,0.30
2017,04,03,10,32,0.50
2017,04,03,10,33,0.50
2017,04,03,10,34,0.50
2017,04,03,10,35,0.50
2017,04,03,10,36,0.50
2017,04,03,10,37,0.50
2017,04,03,10,38,0.50
2017,04,03,10,39,0.50
2017,04,03,10,40,0.50
2017,04,03,10,41,0.50
2017,04,03,10,42,0.50
2017,04,03,10,43,0.80
2017,04,03,10,44,0.80
2017,04,03,10,45,0.80
2017,04,03,10,46,0.80
2017,04,03,10,47,0.80
2017,04,03,10,48,0.80
2017,04,03,10,49,0.80
2017,04,03,10,50,0.80
2017,04,03,10,51,0.80
2017,04,03,10,52,0.80
2017,04,03,10,53,0.80
2017,04,03,10,54,0.80
2017,04,03,10,55,0.80
2017,04,03,10,56,0.80
2017,04,03,10,57,0.80
2017,04,03,10,58,0.80
2017,04,03,10,59,0.80
2017,04,03,11,00,0.80
2017,04,03,11,01,0.80
2017,04,03,11,02,0.90
2017,04,03,11,03,0.90
2017,04,03,11,04,0.90
2017,04,03,11,05,0.90
2017,04,03,11,06,0.90
2017,04,03,11,07,0.90
2017,04,03,11,08,0.90
2017,04,03,11,09,0.90
2017,04,03,11,10,0.90
2017,04,03,11,11,1.20
2017,04,03,11,12,1.20
2017,04,03,11,13,1.20
2017,04,03,11,14,1.20
2017,04,03,11,15,1.20
2017,04,03,11,16,1.20
2017,04,03,11,17,1.20
2017,04,03,11,18,1.20
2017,04,03,11,19,1.20
2017,04,03,11,20,1.20
2017,04,03,11,21,1.50
2017,04,03,11,22,1.50
2017,04,03,11,23,1.50
2017,04,03,11,24,1.50
2017,04,03,11,25,1.50
2017,04,03,11,26,1.50
2017,04,03,11,27,1.50
2017,04,03,11,28,1.50
2017,04,03,11,29,1.50
2017,04,03,11,30,1.50
2017,04,03,11,31,1.50
2017,04,03,11,32,1.50
2017,04,03,11,33,1.30
2017,04,03,11,34,1.30
2017,04,03,11,35,1.30
2017,04,03,11,36,1.30
2017,04,03,11,37,1.30
2017,04,03,11,38,1.30
2017,04,03,11,39,1.30
2017,04,03,11,40,1.30
2017,04,03,11,41,1.30
2017,04,03,11,42,1.30
2017,04,03,11,43,1.30
2017,04,03,11,44,1.30
2017,04,03,11,45,1.30
2017,04,03,11,46,1.30
2017,04,03,11,47,1.30
2017,04,03,11,48,1.30
2017,04,03,11,49,1.30
2017,04,03,11,50,1.30
2017,04,03,11,51,1.20
2017,04,03,11,52,1.20
2017,04,03,11,53,1.20
2017,04,03,11,54,1.20
2017,04,03,11,55,1.20
2017,04,03,11,56,1.20
2017,04,03,11,57,1.20
2017,04,03,11,58,1.20
2017,04,03,11,59,1.20
2017,04,03,12,00,1.20
2017,04,03,12,01,1.50
2017,04,03,12,02,1.50
2017,04,03,12,03,1.50
2017,04,03,12,04,1.50
2017,04,03,12,05,1.50
2017,04,03,12,06,1.50
2017,04,03,12,07,1.50
2017,04,03,12,08,1.50
2017,04,03,12,09,1.50
2017,04,03,12,10,1.50
2017,04,03,12,11,1.50
2017,04,03,12,12,1.50
2017,04,03,12,13,1.50
2017,04,03,12,14,1.50
2017,04,03,12,15,1.50
2017,04,03,12,16,1.50
2017,04,03,12,17,1.50
2017,04,03,12,18,1.50
2017,04,03,12,19,1.50
2017,04,03,12,20,1.50
2017,04,03,12,21,1.50
2017,04,03,12,22,1.70
2017,04,03,12,23,1.70
2017,04,03,12,24,1.70
2017,04,03,12,25,1.70
2017,04,03,12,26,1.70
2017,04,03,12,27,1.70
2017,04,03,12,28,1.70
2017,04,03,12,29,1.70
2017,04,03,12,30,1.70
2017,04,03,12,31,1.70
2017,04,03,12,32,1.90
2017,04,03,12,33,1.90
2017,04,03,12,34,1.90
2017,04,03,12,35,1.90
2017,04,03,12,36,1.90
2017,04,03,12,37,1.90
2017,04,03,12,38,1.90
2017,04,03,12,39,1.90
2017,04,03,12,40,1.90
2017,04,03,12,41,1.80
2017,04,03,12,42,1.80
2017,04,03,12,43,1.80
2017,04,03,12,44,1.80
2017,04,03,12,45,1.80
2017,04,03,12,46,1.80
2017,04,03,12,47,1.80
2017,04,03,12,48,1.80
2017,04,03,12,49,1.80
2017,04,03,12,50,1.80
2017,04,03,12,51,2.00
2017,04,03,12,52,2.00
2017,04,03,12,53,2.00
2017,04,03,12,54,2.00
2017,04,03,12,55,2.00
2017,04,03,12,56,2.00
2017,04,03,12,57,2.00
2017,04,03,12,58,2.00
2017,04,03,12,59,2.00
2017,04,03,13,00,2.00
2017,04,03,13,01,2.10
2017,04,03,13,02,2.10
2017,04,03,13,03,2.10
2017,04,03,13,04,2.10
2017,04,03,13,05,2.10
2017,04,03,13,06,2.10
2017,04,03,13,07,2.10
2017,04,03,13,08,2.10
2017,04,03,13,09,2.10
2017,04,03,13,10,2.10
2017,04,03,13,11,2.10
2017,04,03,13,12,2.10
2017,04,03,13,13,2.10
2017,04,03,13,14,2.10
2017,04,03,13,15,2.10
2017,04,03,13,16,2.10
2017,04,03,13,17,2.10
2017,04,03,13,18,2.10
2017,04,03,13,19,2.10
2017,04,03,13,20,2.10
2017,04,03,13,21,1.90
2017,04,03,13,22,1.90
2017,04,03,13,23,1.90
2017,04,03,13,24,1.90
2017,04,03,13,25,1.90
2017,04,03,13,26,1.90
2017,04,03,13,27,1.90
2017,04,03,13,28,1.90
2017,04,03,13,29,1.90
2017,04,03,13,30,1.90
2017,04,03,13,31,2.10
2017,04,03,13,32,2.10
2017,04,03,13,33,2.10
2017,04,03,13,34,2.10
2017,04,03,13,35,2.10
2017,04,03,13,36,2.10
2017,04,03,13,37,2.10
2017,04,03,13,38,2.10
2017,04,03,13,39,2.10
2017,04,03,13,40,2.10
2017,04,03,13,41,2.10
2017,04,03,13,42,2.10
2017,04,03,13,43,2.30
2017,04,03,13,44,2.30
2017,04,03,13,45,2.30
2017,04,03,13,46,2.30
2017,04,03,13,47,2.30
2017,04,03,13,48,2.30
2017,04,03,13,49,2.30
2017,04,03,13,50,2.30
2017,04,03,13,51,2.30
2017,04,03,13,52,2.30
2017,04,03,13,53,2.70
2017,04,03,13,54,2.70
2017,04,03,13,55,2.70
2017,04,03,13,56,2.70
2017,04,03,13,57,2.70
2017,04,03,13,58,2.70
2017,04,03,13,59,2.70
2017,04,03,14,00,2.70
2017,04,03,14,01,2.80
2017,04,03,14,02,2.80
2017,04,03,14,03,2.80
2017,04,03,14,04,2.80
2017,04,03,14,05,2.80
2017,04,03,14,06,2.80
2017,04,03,14,07,2.80
2017,04,03,14,08,2.80
2017,04,03,14,09,2.80
2017,04,03,14,10,2.80
2017,04,03,14,11,2.80
2017,04,03,14,12,2.80
2017,04,03,14,13,2.80
2017,04,03,14,14,2.80
2017,04,03,14,15,2.80
2017,04,03,14,16,2.80
2017,04,03,14,17,2.80
2017,04,03,14,18,2.80
2017,04,03,14,19,2.80
2017,04,03,14,20,2.80
2017,04,03,14,21,2.80
2017,04,03,14,22,3.20
2017,04,03,14,23,3.20
2017,04,03,14,24,3.20
2017,04,03,14,25,3.20
2017,04,03,14,26,3.20
2017,04,03,14,27,3.20
2017,04,03,14,28,3.20
2017,04,03,14,29,3.20
2017,04,03,14,30,3.20
2017,04,03,14,31,2.80
2017,04,03,14,32,2.80
2017,04,03,14,33,2.80
2017,04,03,14,34,2.80
2017,04,03,14,35,2.80
2017,04,03,14,36,2.80
2017,04,03,14,37,2.80
2017,04,03,14,38,2.80
2017,04,03,14,39,2.80
2017,04,03,14,40,2.80
2017,04,03,14,41,3.00
2017,04,03,14,42,3.00
2017,04,03,14,43,3.00
2017,04,03,14,44,3.00
2017,04,03,14,45,3.00
2017,04,03,14,46,3.00
2017,04,03,14,47,3.00
2017,04,03,14,48,3.00
2017,04,03,14,49,3.00
2017,04,03,14,50,3.00
2017,04,03,14,51,3.00
2017,04,03,14,52,3.00
2017,04,03,14,53,2.90
2017,04,03,14,54,2.90
2017,04,03,14,55,2.90
2017,04,03,14,56,2.90
2017,04,03,14,57,2.90
2017,04,03,14,58,2.90
2017,04,03,14,59,2.90
2017,04,03,15,00,2.90
2017,04,03,15,01,2.80
2017,04,03,15,02,2.80
2017,04,03,15,03,2.80
2017,04,03,15,04,2.80
2017,04,03,15,05,2.80
2017,04,03,15,06,2.80
2017,04,03,15,07,2.80
2017,04,03,15,08,2.80
2017,04,03,15,09,2.80
2017,04,03,15,10,2.80
2017,04,03,15,11,2.80
2017,04,03,15,12,2.80
2017,04,03,15,13,2.70
2017,04,03,15,14,2.70
2017,04,03,15,15,2.70
2017,04,03,15,16,2.70
2017,04,03,15,17,2.70
2017,04,03,15,18,2.70
2017,04,03,15,19,2.70
2017,04,03,15,20,2.70
2017,04,03,15,21,2.90
2017,04,03,15,22,2.90
2017,04,03,15,23,2.90
2017,04,03,15,24,2.90
2017,04,03,15,25,2.90
2017,04,03,15,26,2.90
2017,04,03,15,27,2.90
2017,04,03,15,28,2.90
2017,04,03,15,29,2.90
2017,04,03,15,30,2.90
2017,04,03,15,31,2.90
2017,04,03,15,32,2.70
2017,04,03,15,33,2.70
2017,04,03,15,34,2.70
2017,04,03,15,35,2.70
2017,04,03,15,36,2.70
2017,04,03,15,37,2.70
2017,04,03,15,38,2.70
2017,04,03,15,39,2.70
2017,04,03,15,40,2.70
2017,04,03,15,41,2.70
2017,04,03,15,42,2.70
2017,04,03,15,43,2.70
2017,04,03,15,44,2.70
2017,04,03,15,45,2.70
2017,04,03,15,46,2.70
2017,04,03,15,47,2.70
2017,04,03,15,48,2.70
2017,04,03,15,49,2.70
2017,04,03,15,50,2.70
2017,04,03,15,51,2.70
2017,04,03,15,52,2.70
2017,04,03,15,53,2.70
2017,04,03,15,54,2.70
2017,04,03,15,55,2.70
2017,04,03,15,56,2.70
2017,04,03,15,57,2.70
2017,04,03,15,58,2.70
2017,04,03,15,59,2.70
2017,04,03,16,00,2.70
2017,04,03,16,01,2.60
2017,04,03,16,02,2.60
2017,04,03,16,03,2.60
2017,04,03,16,04,2.60
2017,04,03,16,05,2.60
2017,04,03,16,06,2.60
2017,04,03,16,07,2.60
2017,04,03,16,08,2.60
2017,04,03,16,09,2.60
2017,04,03,16,10,2.60
2017,04,03,16,11,2.60
2017,04,03,16,12,2.30
2017,04,03,16,13,2.30
2017,04,03,16,14,2.30
2017,04,03,16,15,2.30
2017,04,03,16,16,2.30
2017,04,03,16,17,2.30
2017,04,03,16,18,2.30
2017,04,03,16,19,2.30
2017,04,03,16,20,2.30
2017,04,03,16,21,2.30
2017,04,03,16,22,2.30
2017,04,03,16,23,2.30
2017,04,03,16,24,2.30
2017,04,03,16,25,2.30
2017,04,03,16,26,2.30
2017,04,03,16,27,2.30
2017,04,03,16,28,2.30
2017,04,03,16,29,2.30
2017,04,03,16,30,2.30
2017,04,03,16,31,2.30
2017,04,03,16,32,2.60
2017,04,03,16,33,2.60
2017,04,03,16,34,2.60
2017,04,03,16,35,2.60
2017,04,03,16,36,2.60
2017,04,03,16,37,2.60
2017,04,03,16,38,2.60
2017,04,03,16,39,2.60
2017,04,03,16,40,2.60
2017,04,03,16,41,2.30
2017,04,03,16,42,2.30
2017,04,03,16,43,2.30
2017,04,03,16,44,2.30
2017,04,03,16,45,2.30
2017,04,03,16,46,2.30
2017,04,03,16,47,2.30
2017,04,03,16,48,2.30
2017,04,03,16,49,2.30
2017,04,03,16,50,2.30
2017,04,03,16,51,2.40
2017,04,03,16,52,2.40
2017,04,03,16,53,2.40
2017,04,03,16,54,2.40
2017,04,03,16,55,2.40
2017,04,03,16,56,2.40
2017,04,03,16,57,2.40
2017,04,03,16,58,2.40
2017,04,03,16,59,2.40
2017,04,03,17,00,2.40
2017,04,03,17,01,2.40
2017,04,03,17,02,2.70
2017,04,03,17,03,2.70
2017,04,03,17,04,2.70
2017,04,03,17,05,2.70
2017,04,03,17,06,2.70
2017,04,03,17,07,2.70
2017,04,03,17,08,2.70
2017,04,03,17,09,2.70
2017,04,03,17,10,2.70
2017,04,03,17,11,2.60
2017,04,03,17,12,2.60
2017,04,03,17,13,2.60
2017,04,03,17,14,2.60
2017,04,03,17,15,2.60
2017,04,03,17,16,2.60
2017,04,03,17,17,2.60
2017,04,03,17,18,2.60
2017,04,03,17,19,2.60
2017,04,03,17,20,2.60
2017,04,03,17,21,2.50
2017,04,03,17,22,2.50
2017,04,03,17,23,2.50
2017,04,03,17,24,2.50
2017,04,03,17,25,2.50
2017,04,03,17,26,2.50
2017,04,03,17,27,2.50
2017,04,03,17,28,2.50
2017,04,03,17,29,2.50
2017,04,03,17,30,2.50
2017,04,03,17,31,2.50
2017,04,03,17,32,2.50
2017,04,03,17,33,2.30
2017,04,03,17,34,2.30
2017,04,03,17,35,2.30
2017,04,03,17,36,2.30
2017,04,03,17,37,2.30
2017,04,03,17,38,2.30
2017,04,03,17,39,2.30
2017,04,03,17,40,2.30